Year,Month,Day,Hour,Minute,Value (Times are PST for temperature in C)
2009,06,26,00,00,11.10
2009,06,26,00,01,11.10
2009,06,26,00,02,11.10
2009,06,26,00,03,11.10
2009,06,26,00,04,11.10
2009,06,26,00,05,11.10
2009,06,26,00,06,11.10
2009,06,26,00,07,11.10
2009,06,26,00,08,11.10
2009,06,26,00,09,11.10
2009,06,26,00,10,11.00
2009,06,26,00,11,10.90
2009,06,26,00,12,10.90
2009,06,26,00,13,10.90
2009,06,26,00,14,10.90
2009,06,26,00,15,10.90
2009,06,26,00,16,10.90
2009,06,26,00,17,10.90
2009,06,26,00,18,10.90
2009,06,26,00,19,10.90
2009,06,26,00,20,10.90
2009,06,26,00,21,10.90
2009,06,26,00,22,10.90
2009,06,26,00,23,10.90
2009,06,26,00,24,10.90
2009,06,26,00,25,10.90
2009,06,26,00,26,10.90
2009,06,26,00,27,10.90
2009,06,26,00,28,10.90
2009,06,26,00,29,10.90
2009,06,26,00,30,10.90
2009,06,26,00,31,10.90
2009,06,26,00,32,10.90
2009,06,26,00,33,10.90
2009,06,26,00,34,10.90
2009,06,26,00,35,10.90
2009,06,26,00,36,10.90
2009,06,26,00,37,10.90
2009,06,26,00,38,10.90
2009,06,26,00,39,10.90
2009,06,26,00,40,10.90
2009,06,26,00,41,10.90
2009,06,26,00,42,10.90
2009,06,26,00,43,10.90
2009,06,26,00,44,10.90
2009,06,26,00,45,10.90
2009,06,26,00,46,10.90
2009,06,26,00,47,10.90
2009,06,26,00,48,10.90
2009,06,26,00,49,10.90
2009,06,26,00,50,10.90
2009,06,26,00,51,10.90
2009,06,26,00,52,10.90
2009,06,26,00,53,10.90
2009,06,26,00,54,10.90
2009,06,26,00,55,10.90
2009,06,26,00,56,10.90
2009,06,26,00,57,10.80
2009,06,26,00,58,10.80
2009,06,26,00,59,10.80
2009,06,26,01,00,10.80
2009,06,26,01,01,10.80
2009,06,26,01,02,10.80
2009,06,26,01,03,10.80
2009,06,26,01,04,10.80
2009,06,26,01,05,10.70
2009,06,26,01,06,10.70
2009,06,26,01,07,10.70
2009,06,26,01,08,10.70
2009,06,26,01,09,10.60
2009,06,26,01,10,10.60
2009,06,26,01,11,10.60
2009,06,26,01,12,10.60
2009,06,26,01,13,10.60
2009,06,26,01,14,10.60
2009,06,26,01,15,10.60
2009,06,26,01,16,10.60
2009,06,26,01,17,10.60
2009,06,26,01,18,10.60
2009,06,26,01,19,10.60
2009,06,26,01,20,10.50
2009,06,26,01,21,10.40
2009,06,26,01,22,10.40
2009,06,26,01,23,10.40
2009,06,26,01,24,10.40
2009,06,26,01,25,10.40
2009,06,26,01,26,10.40
2009,06,26,01,27,10.40
2009,06,26,01,28,10.40
2009,06,26,01,29,10.40
2009,06,26,01,30,10.40
2009,06,26,01,31,10.40
2009,06,26,01,32,10.40
2009,06,26,01,33,10.40
2009,06,26,01,34,10.30
2009,06,26,01,35,10.30
2009,06,26,01,36,10.30
2009,06,26,01,37,10.20
2009,06,26,01,38,10.20
2009,06,26,01,39,10.20
2009,06,26,01,40,10.10
2009,06,26,01,41,10.10
2009,06,26,01,42,10.10
2009,06,26,01,43,10.10
2009,06,26,01,44,10.10
2009,06,26,01,45,10.10
2009,06,26,01,46,10.00
2009,06,26,01,47,9.90
2009,06,26,01,48,9.90
2009,06,26,01,49,9.90
2009,06,26,01,50,9.90
2009,06,26,01,51,9.90
2009,06,26,01,52,9.90
2009,06,26,01,53,9.90
2009,06,26,01,54,9.90
2009,06,26,01,55,9.90
2009,06,26,01,56,9.90
2009,06,26,01,57,9.90
2009,06,26,01,58,9.90
2009,06,26,01,59,9.90
2009,06,26,02,00,9.90
2009,06,26,02,01,9.90
2009,06,26,02,02,9.90
2009,06,26,02,03,9.90
2009,06,26,02,04,9.90
2009,06,26,02,05,9.90
2009,06,26,02,06,9.90
2009,06,26,02,07,9.90
2009,06,26,02,08,9.90
2009,06,26,02,09,9.90
2009,06,26,02,10,9.90
2009,06,26,02,11,9.90
2009,06,26,02,12,9.90
2009,06,26,02,13,9.90
2009,06,26,02,14,9.90
2009,06,26,02,15,9.90
2009,06,26,02,16,9.90
2009,06,26,02,17,9.90
2009,06,26,02,18,9.90
2009,06,26,02,19,9.90
2009,06,26,02,20,9.90
2009,06,26,02,21,9.90
2009,06,26,02,22,9.90
2009,06,26,02,23,9.90
2009,06,26,02,24,9.90
2009,06,26,02,25,9.90
2009,06,26,02,26,9.90
2009,06,26,02,27,9.90
2009,06,26,02,28,9.90
2009,06,26,02,29,10.00
2009,06,26,02,30,10.10
2009,06,26,02,31,10.10
2009,06,26,02,32,10.00
2009,06,26,02,33,9.90
2009,06,26,02,34,9.90
2009,06,26,02,35,10.10
2009,06,26,02,36,10.10
2009,06,26,02,37,10.10
2009,06,26,02,38,10.00
2009,06,26,02,39,9.90
2009,06,26,02,40,9.90
2009,06,26,02,41,9.90
2009,06,26,02,42,9.90
2009,06,26,02,43,9.90
2009,06,26,02,44,9.90
2009,06,26,02,45,10.00
2009,06,26,02,46,10.10
2009,06,26,02,47,10.10
2009,06,26,02,48,10.10
2009,06,26,02,49,10.10
2009,06,26,02,50,10.10
2009,06,26,02,51,10.10
2009,06,26,02,52,10.10
2009,06,26,02,53,10.10
2009,06,26,02,54,10.10
2009,06,26,02,55,10.10
2009,06,26,02,56,10.10
2009,06,26,02,57,10.10
2009,06,26,02,58,10.10
2009,06,26,02,59,10.10
2009,06,26,03,00,10.10
2009,06,26,03,01,10.10
2009,06,26,03,02,10.10
2009,06,26,03,03,10.10
2009,06,26,03,04,10.10
2009,06,26,03,05,10.10
2009,06,26,03,06,10.10
2009,06,26,03,07,10.10
2009,06,26,03,08,10.10
2009,06,26,03,09,10.10
2009,06,26,03,10,10.10
2009,06,26,03,11,10.20
2009,06,26,03,12,10.20
2009,06,26,03,13,10.10
2009,06,26,03,14,10.20
2009,06,26,03,15,10.20
2009,06,26,03,16,10.10
2009,06,26,03,17,10.10
2009,06,26,03,18,10.20
2009,06,26,03,19,10.20
2009,06,26,03,20,10.10
2009,06,26,03,21,10.10
2009,06,26,03,22,10.10
2009,06,26,03,23,10.10
2009,06,26,03,24,10.10
2009,06,26,03,25,10.10
2009,06,26,03,26,10.10
2009,06,26,03,27,10.10
2009,06,26,03,28,10.10
2009,06,26,03,29,10.10
2009,06,26,03,30,10.10
2009,06,26,03,31,10.10
2009,06,26,03,32,10.10
2009,06,26,03,33,10.10
2009,06,26,03,34,10.10
2009,06,26,03,35,10.10
2009,06,26,03,36,10.00
2009,06,26,03,37,9.90
2009,06,26,03,38,9.90
2009,06,26,03,39,9.90
2009,06,26,03,40,9.90
2009,06,26,03,41,9.90
2009,06,26,03,42,9.90
2009,06,26,03,43,9.90
2009,06,26,03,44,9.90
2009,06,26,03,45,9.90
2009,06,26,03,46,9.90
2009,06,26,03,47,9.80
2009,06,26,03,48,9.80
2009,06,26,03,49,9.80
2009,06,26,03,50,9.80
2009,06,26,03,51,9.80
2009,06,26,03,52,9.70
2009,06,26,03,53,9.70
2009,06,26,03,54,9.70
2009,06,26,03,55,9.70
2009,06,26,03,56,9.70
2009,06,26,03,57,9.70
2009,06,26,03,58,9.60
2009,06,26,03,59,9.60
2009,06,26,04,00,9.50
2009,06,26,04,01,9.50
2009,06,26,04,02,9.50
2009,06,26,04,03,9.40
2009,06,26,04,04,9.40
2009,06,26,04,05,9.30
2009,06,26,04,06,9.30
2009,06,26,04,07,9.30
2009,06,26,04,08,9.20
2009,06,26,04,09,9.20
2009,06,26,04,10,9.20
2009,06,26,04,11,9.20
2009,06,26,04,12,9.20
2009,06,26,04,13,9.20
2009,06,26,04,14,9.20
2009,06,26,04,15,9.20
2009,06,26,04,16,9.20
2009,06,26,04,17,9.20
2009,06,26,04,18,9.20
2009,06,26,04,19,9.20
2009,06,26,04,20,9.20
2009,06,26,04,21,9.20
2009,06,26,04,22,9.20
2009,06,26,04,23,9.10
2009,06,26,04,24,9.10
2009,06,26,04,25,9.10
2009,06,26,04,26,9.20
2009,06,26,04,27,9.20
2009,06,26,04,28,9.20
2009,06,26,04,29,9.20
2009,06,26,04,30,9.30
2009,06,26,04,31,9.30
2009,06,26,04,32,9.30
2009,06,26,04,33,9.30
2009,06,26,04,34,9.30
2009,06,26,04,35,9.30
2009,06,26,04,36,9.30
2009,06,26,04,37,9.20
2009,06,26,04,38,9.20
2009,06,26,04,39,9.20
2009,06,26,04,40,9.20
2009,06,26,04,41,9.20
2009,06,26,04,42,9.20
2009,06,26,04,43,9.20
2009,06,26,04,44,9.20
2009,06,26,04,45,9.20
2009,06,26,04,46,9.20
2009,06,26,04,47,9.20
2009,06,26,04,48,9.20
2009,06,26,04,49,9.10
2009,06,26,04,50,9.10
2009,06,26,04,51,9.00
2009,06,26,04,52,9.00
2009,06,26,04,53,9.00
2009,06,26,04,54,9.00
2009,06,26,04,55,8.90
2009,06,26,04,56,8.90
2009,06,26,04,57,8.90
2009,06,26,04,58,8.90
2009,06,26,04,59,8.90
2009,06,26,05,00,8.90
2009,06,26,05,01,8.80
2009,06,26,05,02,8.80
2009,06,26,05,03,8.80
2009,06,26,05,04,8.70
2009,06,26,05,05,8.70
2009,06,26,05,06,8.70
2009,06,26,05,07,8.70
2009,06,26,05,08,8.70
2009,06,26,05,09,8.70
2009,06,26,05,10,8.70
2009,06,26,05,11,8.70
2009,06,26,05,12,8.70
2009,06,26,05,13,8.70
2009,06,26,05,14,8.70
2009,06,26,05,15,8.70
2009,06,26,05,16,8.60
2009,06,26,05,17,8.60
2009,06,26,05,18,8.60
2009,06,26,05,19,8.60
2009,06,26,05,20,8.60
2009,06,26,05,21,8.60
2009,06,26,05,22,8.60
2009,06,26,05,23,8.60
2009,06,26,05,24,8.60
2009,06,26,05,25,8.60
2009,06,26,05,26,8.50
2009,06,26,05,27,8.50
2009,06,26,05,28,8.50
2009,06,26,05,29,8.50
2009,06,26,05,30,8.50
2009,06,26,05,31,8.50
2009,06,26,05,32,8.40
2009,06,26,05,33,8.40
2009,06,26,05,34,8.40
2009,06,26,05,35,8.40
2009,06,26,05,36,8.30
2009,06,26,05,37,8.30
2009,06,26,05,38,8.30
2009,06,26,05,39,8.30
2009,06,26,05,40,8.30
2009,06,26,05,41,8.40
2009,06,26,05,42,8.40
2009,06,26,05,43,8.40
2009,06,26,05,44,8.40
2009,06,26,05,45,8.40
2009,06,26,05,46,8.40
2009,06,26,05,47,8.40
2009,06,26,05,48,8.30
2009,06,26,05,49,8.30
2009,06,26,05,50,8.20
2009,06,26,05,51,8.20
2009,06,26,05,52,8.20
2009,06,26,05,53,8.20
2009,06,26,05,54,8.20
2009,06,26,05,55,8.20
2009,06,26,05,56,8.20
2009,06,26,05,57,8.20
2009,06,26,05,58,8.10
2009,06,26,05,59,8.10
2009,06,26,06,00,8.10
2009,06,26,06,01,8.20
2009,06,26,06,02,8.20
2009,06,26,06,03,8.20
2009,06,26,06,04,8.20
2009,06,26,06,05,8.20
2009,06,26,06,06,8.20
2009,06,26,06,07,8.20
2009,06,26,06,08,8.20
2009,06,26,06,09,8.20
2009,06,26,06,10,8.20
2009,06,26,06,11,8.20
2009,06,26,06,12,8.20
2009,06,26,06,13,8.20
2009,06,26,06,14,8.20
2009,06,26,06,15,8.30
2009,06,26,06,16,8.30
2009,06,26,06,17,8.30
2009,06,26,06,18,8.40
2009,06,26,06,19,8.40
2009,06,26,06,20,8.50
2009,06,26,06,21,8.50
2009,06,26,06,22,8.60
2009,06,26,06,23,8.60
2009,06,26,06,24,8.70
2009,06,26,06,25,8.70
2009,06,26,06,26,8.70
2009,06,26,06,27,8.70
2009,06,26,06,28,8.70
2009,06,26,06,29,8.70
2009,06,26,06,30,8.70
2009,06,26,06,31,8.70
2009,06,26,06,32,8.70
2009,06,26,06,33,8.70
2009,06,26,06,34,8.80
2009,06,26,06,35,8.80
2009,06,26,06,36,8.80
2009,06,26,06,37,8.80
2009,06,26,06,38,8.80
2009,06,26,06,39,8.90
2009,06,26,06,40,8.90
2009,06,26,06,41,8.90
2009,06,26,06,42,9.00
2009,06,26,06,43,9.00
2009,06,26,06,44,9.00
2009,06,26,06,45,9.10
2009,06,26,06,46,9.20
2009,06,26,06,47,9.20
2009,06,26,06,48,9.20
2009,06,26,06,49,9.20
2009,06,26,06,50,9.30
2009,06,26,06,51,9.30
2009,06,26,06,52,9.40
2009,06,26,06,53,9.40
2009,06,26,06,54,9.50
2009,06,26,06,55,9.50
2009,06,26,06,56,9.50
2009,06,26,06,57,9.60
2009,06,26,06,58,9.60
2009,06,26,06,59,9.60
2009,06,26,07,00,9.70
2009,06,26,07,01,9.70
2009,06,26,07,02,9.70
2009,06,26,07,03,9.70
2009,06,26,07,04,9.70
2009,06,26,07,05,9.70
2009,06,26,07,06,9.70
2009,06,26,07,07,9.70
2009,06,26,07,08,9.80
2009,06,26,07,09,9.80
2009,06,26,07,10,9.80
2009,06,26,07,11,9.80
2009,06,26,07,12,9.90
2009,06,26,07,13,9.90
2009,06,26,07,14,9.90
2009,06,26,07,15,9.90
2009,06,26,07,16,9.90
2009,06,26,07,17,10.00
2009,06,26,07,18,10.10
2009,06,26,07,19,10.10
2009,06,26,07,20,10.10
2009,06,26,07,21,10.20
2009,06,26,07,22,10.20
2009,06,26,07,23,10.30
2009,06,26,07,24,10.30
2009,06,26,07,25,10.40
2009,06,26,07,26,10.40
2009,06,26,07,27,10.40
2009,06,26,07,28,10.40
2009,06,26,07,29,10.50
2009,06,26,07,30,10.60
2009,06,26,07,31,10.60
2009,06,26,07,32,10.60
2009,06,26,07,33,10.70
2009,06,26,07,34,10.70
2009,06,26,07,35,10.70
2009,06,26,07,36,10.70
2009,06,26,07,37,10.80
2009,06,26,07,38,10.80
2009,06,26,07,39,10.80
2009,06,26,07,40,10.90
2009,06,26,07,41,10.90
2009,06,26,07,42,10.90
2009,06,26,07,43,11.00
2009,06,26,07,44,11.10
2009,06,26,07,45,11.10
2009,06,26,07,46,11.20
2009,06,26,07,47,11.20
2009,06,26,07,48,11.30
2009,06,26,07,49,11.40
2009,06,26,07,50,11.40
2009,06,26,07,51,11.50
2009,06,26,07,52,11.60
2009,06,26,07,53,11.60
2009,06,26,07,54,11.70
2009,06,26,07,55,11.80
2009,06,26,07,56,11.80
2009,06,26,07,57,11.80
2009,06,26,07,58,11.90
2009,06,26,07,59,12.00
2009,06,26,08,00,12.00
2009,06,26,08,01,12.10
2009,06,26,08,02,12.10
2009,06,26,08,03,12.20
2009,06,26,08,04,12.30
2009,06,26,08,05,12.30
2009,06,26,08,06,12.30
2009,06,26,08,07,12.30
2009,06,26,08,08,12.40
2009,06,26,08,09,12.50
2009,06,26,08,10,12.50
2009,06,26,08,11,12.50
2009,06,26,08,12,12.50
2009,06,26,08,13,12.60
2009,06,26,08,14,12.60
2009,06,26,08,15,12.70
2009,06,26,08,16,12.70
2009,06,26,08,17,12.70
2009,06,26,08,18,12.70
2009,06,26,08,19,12.80
2009,06,26,08,20,12.80
2009,06,26,08,21,12.80
2009,06,26,08,22,12.80
2009,06,26,08,23,12.80
2009,06,26,08,24,12.90
2009,06,26,08,25,12.90
2009,06,26,08,26,12.90
2009,06,26,08,27,12.90
2009,06,26,08,28,13.00
2009,06,26,08,29,13.10
2009,06,26,08,30,13.20
2009,06,26,08,31,13.20
2009,06,26,08,32,13.30
2009,06,26,08,33,13.30
2009,06,26,08,34,13.30
2009,06,26,08,35,13.40
2009,06,26,08,36,13.50
2009,06,26,08,37,13.50
2009,06,26,08,38,13.60
2009,06,26,08,39,13.60
2009,06,26,08,40,13.70
2009,06,26,08,41,13.80
2009,06,26,08,42,13.90
2009,06,26,08,43,14.00
2009,06,26,08,44,14.10
2009,06,26,08,45,14.20
2009,06,26,08,46,14.30
2009,06,26,08,47,14.40
2009,06,26,08,48,14.40
2009,06,26,08,49,14.40
2009,06,26,08,50,14.40
2009,06,26,08,51,14.30
2009,06,26,08,52,14.30
2009,06,26,08,53,14.30
2009,06,26,08,54,14.40
2009,06,26,08,55,14.50
2009,06,26,08,56,14.60
2009,06,26,08,57,14.70
2009,06,26,08,58,14.80
2009,06,26,08,59,14.90
2009,06,26,09,00,14.90
2009,06,26,09,01,14.80
2009,06,26,09,02,14.80
2009,06,26,09,03,14.80
2009,06,26,09,04,14.70
2009,06,26,09,05,14.70
2009,06,26,09,06,14.70
2009,06,26,09,07,14.80
2009,06,26,09,08,14.80
2009,06,26,09,09,15.00
2009,06,26,09,10,15.10
2009,06,26,09,11,15.10
2009,06,26,09,12,15.10
2009,06,26,09,13,15.00
2009,06,26,09,14,15.10
2009,06,26,09,15,15.10
2009,06,26,09,16,15.10
2009,06,26,09,17,15.20
2009,06,26,09,18,15.30
2009,06,26,09,19,15.40
2009,06,26,09,20,15.40
2009,06,26,09,21,15.50
2009,06,26,09,22,15.50
2009,06,26,09,23,15.60
2009,06,26,09,24,15.70
2009,06,26,09,25,15.80
2009,06,26,09,26,15.70
2009,06,26,09,27,15.80
2009,06,26,09,28,15.80
2009,06,26,09,29,15.80
2009,06,26,09,30,15.80
2009,06,26,09,31,15.90
2009,06,26,09,32,15.90
2009,06,26,09,33,16.00
2009,06,26,09,34,16.10
2009,06,26,09,35,16.10
2009,06,26,09,36,16.10
2009,06,26,09,37,16.00
2009,06,26,09,38,15.90
2009,06,26,09,39,15.90
2009,06,26,09,40,15.80
2009,06,26,09,41,15.90
2009,06,26,09,42,16.00
2009,06,26,09,43,16.10
2009,06,26,09,44,16.10
2009,06,26,09,45,16.10
2009,06,26,09,46,16.10
2009,06,26,09,47,16.00
2009,06,26,09,48,15.90
2009,06,26,09,49,15.90
2009,06,26,09,50,15.90
2009,06,26,09,51,16.00
2009,06,26,09,52,16.10
2009,06,26,09,53,16.10
2009,06,26,09,54,16.20
2009,06,26,09,55,16.30
2009,06,26,09,56,16.20
2009,06,26,09,57,16.20
2009,06,26,09,58,16.10
2009,06,26,09,59,16.10
2009,06,26,10,00,16.10
2009,06,26,10,01,16.10
2009,06,26,10,02,16.20
2009,06,26,10,03,16.20
2009,06,26,10,04,16.30
2009,06,26,10,05,16.40
2009,06,26,10,06,16.40
2009,06,26,10,07,16.30
2009,06,26,10,08,16.30
2009,06,26,10,09,16.30
2009,06,26,10,10,16.20
2009,06,26,10,11,16.10
2009,06,26,10,12,16.10
2009,06,26,10,13,16.10
2009,06,26,10,14,16.20
2009,06,26,10,15,16.30
2009,06,26,10,16,16.30
2009,06,26,10,17,16.40
2009,06,26,10,18,16.50
2009,06,26,10,19,16.60
2009,06,26,10,20,16.70
2009,06,26,10,21,16.70
2009,06,26,10,22,16.70
2009,06,26,10,23,16.70
2009,06,26,10,24,16.70
2009,06,26,10,25,16.70
2009,06,26,10,26,16.70
2009,06,26,10,27,16.70
2009,06,26,10,28,16.70
2009,06,26,10,29,16.70
2009,06,26,10,30,16.70
2009,06,26,10,31,16.80
2009,06,26,10,32,16.80
2009,06,26,10,33,16.90
2009,06,26,10,34,16.80
2009,06,26,10,35,16.70
2009,06,26,10,36,16.60
2009,06,26,10,37,16.40
2009,06,26,10,38,16.20
2009,06,26,10,39,16.10
2009,06,26,10,40,15.90
2009,06,26,10,41,16.10
2009,06,26,10,42,16.10
2009,06,26,10,43,16.10
2009,06,26,10,44,16.10
2009,06,26,10,45,16.10
2009,06,26,10,46,16.10
2009,06,26,10,47,16.10
2009,06,26,10,48,16.10
2009,06,26,10,49,16.10
2009,06,26,10,50,16.10
2009,06,26,10,51,16.10
2009,06,26,10,52,16.10
2009,06,26,10,53,16.10
2009,06,26,10,54,16.10
2009,06,26,10,55,16.10
2009,06,26,10,56,16.00
2009,06,26,10,57,15.90
2009,06,26,10,58,15.80
2009,06,26,10,59,15.80
2009,06,26,11,00,15.80
2009,06,26,11,01,15.70
2009,06,26,11,02,15.70
2009,06,26,11,03,15.60
2009,06,26,11,04,15.60
2009,06,26,11,05,15.60
2009,06,26,11,06,15.70
2009,06,26,11,07,15.80
2009,06,26,11,08,15.90
2009,06,26,11,09,16.00
2009,06,26,11,10,16.00
2009,06,26,11,11,16.00
2009,06,26,11,12,16.10
2009,06,26,11,13,16.20
2009,06,26,11,14,16.30
2009,06,26,11,15,16.20
2009,06,26,11,16,16.30
2009,06,26,11,17,16.30
2009,06,26,11,18,16.40
2009,06,26,11,19,16.30
2009,06,26,11,20,16.30
2009,06,26,11,21,16.30
2009,06,26,11,22,16.20
2009,06,26,11,23,16.10
2009,06,26,11,24,16.10
2009,06,26,11,25,16.10
2009,06,26,11,26,16.10
2009,06,26,11,27,16.10
2009,06,26,11,28,16.10
2009,06,26,11,29,16.10
2009,06,26,11,30,16.20
2009,06,26,11,31,16.20
2009,06,26,11,32,16.30
2009,06,26,11,33,16.20
2009,06,26,11,34,16.10
2009,06,26,11,35,16.10
2009,06,26,11,36,16.10
2009,06,26,11,37,15.90
2009,06,26,11,38,15.90
2009,06,26,11,39,15.80
2009,06,26,11,40,15.80
2009,06,26,11,41,15.80
2009,06,26,11,42,15.80
2009,06,26,11,43,15.80
2009,06,26,11,44,15.80
2009,06,26,11,45,15.80
2009,06,26,11,46,16.00
2009,06,26,11,47,16.10
2009,06,26,11,48,16.10
2009,06,26,11,49,16.10
2009,06,26,11,50,16.10
2009,06,26,11,51,16.00
2009,06,26,11,52,16.10
2009,06,26,11,53,16.10
2009,06,26,11,54,16.30
2009,06,26,11,55,16.40
2009,06,26,11,56,16.40
2009,06,26,11,57,16.40
2009,06,26,11,58,16.50
2009,06,26,11,59,16.60
2009,06,26,12,00,16.70
2009,06,26,12,01,16.70
2009,06,26,12,02,16.60
2009,06,26,12,03,16.50
2009,06,26,12,04,16.40
2009,06,26,12,05,16.40
2009,06,26,12,06,16.40
2009,06,26,12,07,16.60
2009,06,26,12,08,16.60
2009,06,26,12,09,16.60
2009,06,26,12,10,16.40
2009,06,26,12,11,16.30
2009,06,26,12,12,16.10
2009,06,26,12,13,16.10
2009,06,26,12,14,16.10
2009,06,26,12,15,16.10
2009,06,26,12,16,16.20
2009,06,26,12,17,16.30
2009,06,26,12,18,16.50
2009,06,26,12,19,16.70
2009,06,26,12,20,16.90
2009,06,26,12,21,16.90
2009,06,26,12,22,16.80
2009,06,26,12,23,16.90
2009,06,26,12,24,17.00
2009,06,26,12,25,17.00
2009,06,26,12,26,16.90
2009,06,26,12,27,16.90
2009,06,26,12,28,16.80
2009,06,26,12,29,16.80
2009,06,26,12,30,16.70
2009,06,26,12,31,16.70
2009,06,26,12,32,16.70
2009,06,26,12,33,16.70
2009,06,26,12,34,16.90
2009,06,26,12,35,16.90
2009,06,26,12,36,17.00
2009,06,26,12,37,17.10
2009,06,26,12,38,17.10
2009,06,26,12,39,17.00
2009,06,26,12,40,17.00
2009,06,26,12,41,17.00
2009,06,26,12,42,17.00
2009,06,26,12,43,17.00
2009,06,26,12,44,17.10
2009,06,26,12,45,17.30
2009,06,26,12,46,17.30
2009,06,26,12,47,17.30
2009,06,26,12,48,17.30
2009,06,26,12,49,17.30
2009,06,26,12,50,17.30
2009,06,26,12,51,17.40
2009,06,26,12,52,17.40
2009,06,26,12,53,17.40
2009,06,26,12,54,17.40
2009,06,26,12,55,17.30
2009,06,26,12,56,17.30
2009,06,26,12,57,17.30
2009,06,26,12,58,17.40
2009,06,26,12,59,17.40
2009,06,26,13,00,17.50
2009,06,26,13,01,17.40
2009,06,26,13,02,17.40
2009,06,26,13,03,17.40
2009,06,26,13,04,17.30
2009,06,26,13,05,17.20
2009,06,26,13,06,17.10
2009,06,26,13,07,17.10
2009,06,26,13,08,17.20
2009,06,26,13,09,17.20
2009,06,26,13,10,17.20
2009,06,26,13,11,17.20
2009,06,26,13,12,17.20
2009,06,26,13,13,17.30
2009,06,26,13,14,17.30
2009,06,26,13,15,17.30
2009,06,26,13,16,17.30
2009,06,26,13,17,17.30
2009,06,26,13,18,17.30
2009,06,26,13,19,17.40
2009,06,26,13,20,17.40
2009,06,26,13,21,17.40
2009,06,26,13,22,17.40
2009,06,26,13,23,17.40
2009,06,26,13,24,17.30
2009,06,26,13,25,17.30
2009,06,26,13,26,17.30
2009,06,26,13,27,17.30
2009,06,26,13,28,17.20
2009,06,26,13,29,17.20
2009,06,26,13,30,17.20
2009,06,26,13,31,17.10
2009,06,26,13,32,17.00
2009,06,26,13,33,17.10
2009,06,26,13,34,17.00
2009,06,26,13,35,17.10
2009,06,26,13,36,17.10
2009,06,26,13,37,17.20
2009,06,26,13,38,17.30
2009,06,26,13,39,17.30
2009,06,26,13,40,17.40
2009,06,26,13,41,17.50
2009,06,26,13,42,17.60
2009,06,26,13,43,17.60
2009,06,26,13,44,17.60
2009,06,26,13,45,17.50
2009,06,26,13,46,17.50
2009,06,26,13,47,17.40
2009,06,26,13,48,17.30
2009,06,26,13,49,17.30
2009,06,26,13,50,17.30
2009,06,26,13,51,17.30
2009,06,26,13,52,17.20
2009,06,26,13,53,17.10
2009,06,26,13,54,17.10
2009,06,26,13,55,17.10
2009,06,26,13,56,17.20
2009,06,26,13,57,17.20
2009,06,26,13,58,17.20
2009,06,26,13,59,17.10
2009,06,26,14,00,17.10
2009,06,26,14,01,17.10
2009,06,26,14,02,17.10
2009,06,26,14,03,17.10
2009,06,26,14,04,17.00
2009,06,26,14,05,16.80
2009,06,26,14,06,16.80
2009,06,26,14,07,16.80
2009,06,26,14,08,16.80
2009,06,26,14,09,16.90
2009,06,26,14,10,17.10
2009,06,26,14,11,17.30
2009,06,26,14,12,17.40
2009,06,26,14,13,17.40
2009,06,26,14,14,17.40
2009,06,26,14,15,17.40
2009,06,26,14,16,17.50
2009,06,26,14,17,17.50
2009,06,26,14,18,17.40
2009,06,26,14,19,17.40
2009,06,26,14,20,17.40
2009,06,26,14,21,17.50
2009,06,26,14,22,17.60
2009,06,26,14,23,17.60
2009,06,26,14,24,17.70
2009,06,26,14,25,17.50
2009,06,26,14,26,17.50
2009,06,26,14,27,17.40
2009,06,26,14,28,17.40
2009,06,26,14,29,17.50
2009,06,26,14,30,17.60
2009,06,26,14,31,17.60
2009,06,26,14,32,17.50
2009,06,26,14,33,17.40
2009,06,26,14,34,17.30
2009,06,26,14,35,17.30
2009,06,26,14,36,17.20
2009,06,26,14,37,17.20
2009,06,26,14,38,17.20
2009,06,26,14,39,17.20
2009,06,26,14,40,17.30
2009,06,26,14,41,17.30
2009,06,26,14,42,17.30
2009,06,26,14,43,17.40
2009,06,26,14,44,17.30
2009,06,26,14,45,17.20
2009,06,26,14,46,17.10
2009,06,26,14,47,17.10
2009,06,26,14,48,17.10
2009,06,26,14,49,17.20
2009,06,26,14,50,17.10
2009,06,26,14,51,17.20
2009,06,26,14,52,17.20
2009,06,26,14,53,17.20
2009,06,26,14,54,17.20
2009,06,26,14,55,17.30
2009,06,26,14,56,17.30
2009,06,26,14,57,17.30
2009,06,26,14,58,17.40
2009,06,26,14,59,17.40
2009,06,26,15,00,17.40
2009,06,26,15,01,17.50
2009,06,26,15,02,17.40
2009,06,26,15,03,17.40
2009,06,26,15,04,17.40
2009,06,26,15,05,17.40
2009,06,26,15,06,17.40
2009,06,26,15,07,17.40
2009,06,26,15,08,17.40
2009,06,26,15,09,17.50
2009,06,26,15,10,17.60
2009,06,26,15,11,17.70
2009,06,26,15,12,17.80
2009,06,26,15,13,17.80
2009,06,26,15,14,17.80
2009,06,26,15,15,17.90
2009,06,26,15,16,18.10
2009,06,26,15,17,18.20
2009,06,26,15,18,18.10
2009,06,26,15,19,18.00
2009,06,26,15,20,17.90
2009,06,26,15,21,17.90
2009,06,26,15,22,17.80
2009,06,26,15,23,17.70
2009,06,26,15,24,17.60
2009,06,26,15,25,17.50
2009,06,26,15,26,17.40
2009,06,26,15,27,17.40
2009,06,26,15,28,17.40
2009,06,26,15,29,17.30
2009,06,26,15,30,17.40
2009,06,26,15,31,17.40
2009,06,26,15,32,17.40
2009,06,26,15,33,17.50
2009,06,26,15,34,17.50
2009,06,26,15,35,17.40
2009,06,26,15,36,17.40
2009,06,26,15,37,17.30
2009,06,26,15,38,17.30
2009,06,26,15,39,17.10
2009,06,26,15,40,17.00
2009,06,26,15,41,16.90
2009,06,26,15,42,16.90
2009,06,26,15,43,16.80
2009,06,26,15,44,16.70
2009,06,26,15,45,16.60
2009,06,26,15,46,16.60
2009,06,26,15,47,16.60
2009,06,26,15,48,16.60
2009,06,26,15,49,16.60
2009,06,26,15,50,16.60
2009,06,26,15,51,16.70
2009,06,26,15,52,16.70
2009,06,26,15,53,16.60
2009,06,26,15,54,16.50
2009,06,26,15,55,16.40
2009,06,26,15,56,16.40
2009,06,26,15,57,16.40
2009,06,26,15,58,16.40
2009,06,26,15,59,16.30
2009,06,26,16,00,16.30
2009,06,26,16,01,16.30
2009,06,26,16,02,16.40
2009,06,26,16,03,16.50
2009,06,26,16,04,16.50
2009,06,26,16,05,16.40
2009,06,26,16,06,16.40
2009,06,26,16,07,16.40
2009,06,26,16,08,16.40
2009,06,26,16,09,16.40
2009,06,26,16,10,16.50
2009,06,26,16,11,16.60
2009,06,26,16,12,16.60
2009,06,26,16,13,16.70
2009,06,26,16,14,16.70
2009,06,26,16,15,16.60
2009,06,26,16,16,16.60
2009,06,26,16,17,16.60
2009,06,26,16,18,16.60
2009,06,26,16,19,16.70
2009,06,26,16,20,16.70
2009,06,26,16,21,16.80
2009,06,26,16,22,16.80
2009,06,26,16,23,16.80
2009,06,26,16,24,16.70
2009,06,26,16,25,16.60
2009,06,26,16,26,16.60
2009,06,26,16,27,16.60
2009,06,26,16,28,16.60
2009,06,26,16,29,16.70
2009,06,26,16,30,16.70
2009,06,26,16,31,16.60
2009,06,26,16,32,16.60
2009,06,26,16,33,16.60
2009,06,26,16,34,16.60
2009,06,26,16,35,16.70
2009,06,26,16,36,16.60
2009,06,26,16,37,16.40
2009,06,26,16,38,16.40
2009,06,26,16,39,16.40
2009,06,26,16,40,16.20
2009,06,26,16,41,16.10
2009,06,26,16,42,16.10
2009,06,26,16,43,16.10
2009,06,26,16,44,16.10
2009,06,26,16,45,16.10
2009,06,26,16,46,16.10
2009,06,26,16,47,16.00
2009,06,26,16,48,15.90
2009,06,26,16,49,15.80
2009,06,26,16,50,15.70
2009,06,26,16,51,15.80
2009,06,26,16,52,15.80
2009,06,26,16,53,15.70
2009,06,26,16,54,15.60
2009,06,26,16,55,15.60
2009,06,26,16,56,15.60
2009,06,26,16,57,15.60
2009,06,26,16,58,15.70
2009,06,26,16,59,15.70
2009,06,26,17,00,15.70
2009,06,26,17,01,15.70
2009,06,26,17,02,15.80
2009,06,26,17,03,15.80
2009,06,26,17,04,15.70
2009,06,26,17,05,15.70
2009,06,26,17,06,15.50
2009,06,26,17,07,15.50
2009,06,26,17,08,15.50
2009,06,26,17,09,15.50
2009,06,26,17,10,15.50
2009,06,26,17,11,15.60
2009,06,26,17,12,15.70
2009,06,26,17,13,15.80
2009,06,26,17,14,15.90
2009,06,26,17,15,16.10
2009,06,26,17,16,16.10
2009,06,26,17,17,16.10
2009,06,26,17,18,16.10
2009,06,26,17,19,16.00
2009,06,26,17,20,15.90
2009,06,26,17,21,15.90
2009,06,26,17,22,16.00
2009,06,26,17,23,16.10
2009,06,26,17,24,16.10
2009,06,26,17,25,16.10
2009,06,26,17,26,16.20
2009,06,26,17,27,16.30
2009,06,26,17,28,16.40
2009,06,26,17,29,16.40
2009,06,26,17,30,16.40
2009,06,26,17,31,16.50